Weather reports worldwide

Advertisment
Shawbury, United Kingdom (3414): temperature & dewpoint: 15.11.2017 13:00:00 - 21.11.2017 13:00:00 (GMT)Shawbury, United Kingdom (3414): wind speed: 15.11.2017 13:00:00 - 21.11.2017 13:00:00 (GMT)Shawbury, United Kingdom (3414): wind direction: 15.11.2017 13:00:00 - 21.11.2017 13:00:00 (GMT)Shawbury, United Kingdom (3414): reduced air pressure: 15.11.2017 13:00:00 - 21.11.2017 13:00:00 (GMT)Shawbury, United Kingdom (3414): visibility: 15.11.2017 13:00:00 - 21.11.2017 13:00:00 (GMT)Shawbury, United Kingdom (3414): sunshine duration: 15.11.2017 13:00:00 - 21.11.2017 13:00:00 (GMT)Shawbury, United Kingdom (3414): precipitation: 15.11.2017 13:00:00 - 21.11.2017 13:00:00 (GMT)
Date & Time tt [°C] td [°C] ff [km/h] ff [kn] dd ppp [hPa] vv [km] sd [min] rr [mm]
21.11.2017 13:00:00 12,4 8,3 8 4 S 1006,2 10 0 0,0
21.11.2017 12:00:00 12,3 8,0 18 10 S 1007,3 10 0 0,0
21.11.2017 11:00:00 12,6 9,0 29 16 SW 1008,1 10 0 0,0
21.11.2017 10:00:00 12,8 10,1 28 15 SW 1008,3 10 0 0,0
21.11.2017 09:00:00 12,8 10,3 22 12 WSW 1008,4 10 0 0,0
21.11.2017 08:00:00 12,7 10,8 15 8 WSW 1008,6 10 0 0,0
21.11.2017 07:00:00 13,1 10,6 18 10 WSW 1008,6 10 0 0,0
21.11.2017 06:00:00 13,0 10,8 28 15 WSW 1008,2 10 0 0,0
21.11.2017 05:00:00 13,1 11,5 15 8 WSW 1008,9 10 0 0,0
21.11.2017 04:00:00 13,1 11,6 8 4 S 1009,0 10 0 0,0
21.11.2017 03:00:00 13,0 11,5 11 6 SSW 1009,3 10 0 0,0
21.11.2017 02:00:00 13,1 11,7 18 10 SW 1009,8 10 0 0,0
21.11.2017 01:00:00 13,2 11,7 21 11 SW 1010,1 10 0 0,2
21.11.2017 00:00:00 12,5 11,5 9 5 SW 1010,2 10 - 0,0
20.11.2017 23:00:00 12,4 11,2 9 5 SSW 1010,2 10 0 0,0
20.11.2017 22:00:00 12,5 11,5 13 7 S 1010,4 10 0 0,0
20.11.2017 21:00:00 12,1 11,3 9 5 SSW 1010,9 10 0 0,0
20.11.2017 20:00:00 11,5 10,9 13 7 SW 1010,8 10 0 0,0
20.11.2017 19:00:00 11,5 10,0 9 5 SW 1011,1 10 0 0,0
20.11.2017 18:00:00 9,9 8,4 0 0 N 1010,8 10 0 0,0
20.11.2017 17:00:00 10,8 8,9 4 2 WNW 1010,9 10 0 0,0
20.11.2017 16:00:00 10,8 9,0 15 8 WSW 1010,6 10 0 -
20.11.2017 15:00:00 12,4 10,3 18 10 WSW 1010,4 10 18 0,0
20.11.2017 14:00:00 13,4 11,3 21 11 SW 1010,4 10 18 0,0
20.11.2017 13:00:00 13,6 10,9 21 11 WSW 1010,8 10 0 0,0
20.11.2017 12:00:00 13,6 10,8 28 15 WSW 1010,9 10 0 0,0
20.11.2017 11:00:00 13,5 10,5 29 16 WSW 1011,4 10 0 0,0
20.11.2017 10:00:00 12,6 10,8 29 16 WSW 1011,5 10 0 0,0
20.11.2017 09:00:00 11,9 10,4 24 13 WSW 1011,8 10 0 0,0
20.11.2017 08:00:00 11,2 9,9 26 14 SW 1011,8 10 0 0,0
20.11.2017 07:00:00 11,0 9,5 28 15 SW 1012,0 10 0 0,0
20.11.2017 06:00:00 10,7 9,1 29 16 SW 1012,4 10 0 -
20.11.2017 05:00:00 10,3 8,5 28 15 SW 1013,4 10 0 0,0
20.11.2017 04:00:00 9,8 7,4 21 11 SW 1014,1 10 0 0,2
20.11.2017 03:00:00 8,6 7,4 13 7 S 1015,5 10 0 0,2
20.11.2017 02:00:00 7,3 6,6 9 5 SSE 1016,6 5 0 0,2
20.11.2017 01:00:00 7,5 6,3 15 8 SSE 1017,5 9 0 0,0
20.11.2017 00:00:00 7,6 5,2 18 10 SSE 1018,3 10 - -
19.11.2017 23:00:00 7,7 5,4 9 5 SSE 1019,7 10 0 0,0
19.11.2017 22:00:00 7,4 4,6 11 6 SSE 1020,4 10 0 0,0
19.11.2017 21:00:00 7,3 4,1 4 2 WSW 1021,2 10 0 0,0
19.11.2017 20:00:00 7,0 4,1 2 1 SSW 1021,7 10 0 0,0
19.11.2017 19:00:00 6,9 3,7 2 1 NE 1022,1 10 0 0,0
19.11.2017 18:00:00 7,0 3,2 2 1 S 1022,2 10 0 0,0
19.11.2017 17:00:00 7,2 3,1 8 4 S 1022,4 10 0 0,0
19.11.2017 16:00:00 7,7 3,3 8 4 S 1022,8 10 0 0,0
19.11.2017 15:00:00 7,6 3,4 9 5 SSW 1023,2 10 6 0,0
19.11.2017 14:00:00 8,4 2,9 9 5 SW 1023,4 2,9 30 0,0
19.11.2017 13:00:00 8,3 2,5 11 6 W 1024,0 2,5 42 0,0
19.11.2017 12:00:00 7,8 3,7 9 5 WSW 1024,0 10 6 0,0
19.11.2017 11:00:00 6,6 4,2 5 3 S 1024,5 10 0 0,0
19.11.2017 10:00:00 5,6 3,5 9 5 W 1024,3 10 0 0,0
19.11.2017 09:00:00 4,3 3,2 9 5 W 1023,8 10 0 0,0
19.11.2017 08:00:00 2,7 1,8 2 1 WSW 1023,8 10 0 0,0
19.11.2017 07:00:00 3,0 2,1 0 0 N 1023,5 10 0 0,0
19.11.2017 06:00:00 4,3 2,3 2 1 S 1023,2 10 0 0,0
19.11.2017 05:00:00 3,8 2,0 9 5 W 1023,2 10 0 0,0
19.11.2017 04:00:00 4,1 2,3 11 6 W 1022,9 10 0 0,0
19.11.2017 03:00:00 5,3 3,2 9 5 W 1022,9 10 0 0,0
19.11.2017 02:00:00 5,3 3,6 9 5 WNW 1022,9 10 0 0,0
19.11.2017 01:00:00 5,7 3,9 9 5 NW 1022,7 10 0 0,0
19.11.2017 00:00:00 5,6 3,2 8 4 W 1022,3 10 - 0,0
18.11.2017 23:00:00 6,3 3,3 11 6 W 1021,9 10 0 0,0
18.11.2017 22:00:00 6,4 3,0 11 6 WNW 1021,8 10 0 0,0
18.11.2017 21:00:00 6,4 2,7 11 6 W 1021,6 10 0 0,0
18.11.2017 20:00:00 6,2 2,1 13 7 W 1021,5 10 0 0,0
18.11.2017 19:00:00 5,9 2,5 13 7 W 1021,3 10 0 0,0
18.11.2017 18:00:00 7,1 3,2 15 8 WNW 1021,2 10 0 0,0
18.11.2017 17:00:00 8,4 3,8 13 7 WNW 1021,2 10 0 0,0
18.11.2017 16:00:00 8,5 3,9 15 8 WNW 1020,8 10 0 0,0
18.11.2017 15:00:00 8,7 3,1 13 7 WNW 1020,9 10 0 0,0
18.11.2017 14:00:00 9,5 3,5 15 8 WNW 1021,0 10 6 0,0
18.11.2017 13:00:00 9,1 3,4 16 9 W 1021,1 10 0 0,0
18.11.2017 12:00:00 9,0 4,7 11 6 W 1021,5 10 0 0,0
18.11.2017 11:00:00 8,3 4,4 13 7 WNW 1022,2 10 0 0,0
18.11.2017 10:00:00 5,8 5,2 11 6 WNW 1022,3 10 0 0,2
18.11.2017 09:00:00 5,1 4,5 0 0 N 1022,3 10 0 0,0
18.11.2017 08:00:00 4,7 4,1 8 4 E 1022,1 10 0 0,0
18.11.2017 07:00:00 3,6 3,1 9 5 WSW 1022,0 10 0 0,0
18.11.2017 06:00:00 1,8 1,4 9 5 SW 1022,2 10 0 0,0
18.11.2017 05:00:00 3,9 2,1 5 3 S 1023,0 10 0 0,0
18.11.2017 04:00:00 4,6 1,8 8 4 SSW 1023,6 10 0 0,0
18.11.2017 03:00:00 3,6 1,6 13 7 SW 1024,3 10 0 0,0
18.11.2017 02:00:00 3,3 1,1 11 6 SSW 1024,9 10 0 0,0
18.11.2017 01:00:00 4,2 1,3 13 7 SW 1025,3 10 0 0,0
18.11.2017 00:00:00 3,9 1,1 8 4 SW 1025,8 30 - -
17.11.2017 23:00:00 5,5 0,8 13 7 W 1026,3 10 0 0,0
17.11.2017 22:00:00 5,3 0,8 13 7 W 1026,4 10 0 0,0
17.11.2017 21:00:00 5,6 2,0 9 5 W 1026,6 10 0 0,0
17.11.2017 20:00:00 4,9 1,2 13 7 W 1026,8 10 0 0,0
17.11.2017 19:00:00 5,4 2,7 9 5 W 1027,2 10 0 0,0
17.11.2017 18:00:00 5,3 3,2 9 5 WSW 1027,7 10 0 0,0
17.11.2017 17:00:00 6,3 3,6 8 4 WSW 1028,0 10 0 0,0
17.11.2017 16:00:00 6,7 3,5 5 3 SW 1028,1 10 0 0,0
17.11.2017 15:00:00 7,5 3,0 9 5 SW 1027,9 10 0 0,0
17.11.2017 14:00:00 7,7 1,9 11 6 W 1028,6 10 0 0,0
17.11.2017 13:00:00 7,9 0,6 11 6 W 1029,2 10 0 0,0
17.11.2017 12:00:00 7,4 2,2 11 6 W 1029,8 10 18 0,0
17.11.2017 11:00:00 6,1 2,0 18 10 W 1030,3 10 60 0,0
17.11.2017 10:00:00 3,0 0,8 15 8 SW 1030,0 10 48 0,0
17.11.2017 09:00:00 1,1 -1,9 5 3 WSW 1030,3 10 18 0,0
17.11.2017 08:00:00 -1,1 -2,2 9 5 WSW 1030,0 10 0 0,0
17.11.2017 07:00:00 -0,7 -2,1 9 5 SSW 1029,9 10 0 0,0
17.11.2017 06:00:00 0,9 -0,2 9 5 SW 1029,6 10 0 -
17.11.2017 05:00:00 0,9 -0,3 15 8 WSW 1029,5 10 0 0,0
17.11.2017 04:00:00 1,2 -0,4 15 8 W 1029,5 10 0 0,0
17.11.2017 03:00:00 1,6 0,0 13 7 WSW 1029,7 10 0 0,0
17.11.2017 02:00:00 1,3 -0,3 4 2 S 1029,7 10 0 -
17.11.2017 01:00:00 0,9 -0,5 9 5 SW 1029,5 10 0 0,0
17.11.2017 00:00:00 1,7 0,1 8 4 SW 1029,4 10 - -
16.11.2017 23:00:00 0,4 -1,1 15 8 WSW 1029,2 10 0 0,0
16.11.2017 22:00:00 1,6 -0,6 13 7 W 1029,0 10 0 0,0
16.11.2017 21:00:00 2,4 -0,3 13 7 W 1028,2 10 0 0,0
16.11.2017 20:00:00 1,8 0,0 8 4 W 1027,8 10 0 0,0
16.11.2017 19:00:00 3,3 0,5 9 5 W 1027,1 10 0 0,0
16.11.2017 18:00:00 5,0 0,9 9 5 WNW 1026,5 10 0 0,0
16.11.2017 17:00:00 5,8 0,9 11 6 W 1025,7 10 0 0,0
16.11.2017 16:00:00 7,8 1,3 18 10 NW 1024,9 10 54 0,0
16.11.2017 15:00:00 9,0 2,4 11 6 NW 1023,8 10 54 0,0
16.11.2017 14:00:00 9,1 3,2 13 7 WNW 1023,0 10 0 0,0
16.11.2017 13:00:00 9,5 3,8 22 12 NW 1022,5 10 0 0,0
16.11.2017 12:00:00 9,5 6,9 18 10 NW 1021,7 10 0 0,0
16.11.2017 11:00:00 9,9 8,2 26 14 NW 1021,1 10 0 0,6
16.11.2017 10:00:00 11,0 7,6 22 12 SW 1019,5 10 0 0,0
16.11.2017 09:00:00 10,5 7,3 22 12 SW 1019,3 10 6 0,0
16.11.2017 08:00:00 9,4 6,8 9 5 SSW 1019,0 10 0 0,0
16.11.2017 07:00:00 9,5 7,3 22 12 SW 1018,7 10 0 0,0
16.11.2017 06:00:00 9,6 6,9 16 9 S 1019,0 10 0 0,0
16.11.2017 05:00:00 6,9 6,3 4 2 S 1019,1 10 0 0,0
16.11.2017 04:00:00 8,8 7,2 4 2 S 1019,3 10 0 0,0
16.11.2017 03:00:00 7,3 6,6 0 0 N 1019,8 10 0 0,0
16.11.2017 02:00:00 8,6 7,9 4 2 ESE 1020,1 10 0 -
16.11.2017 01:00:00 8,7 8,1 11 6 S 1020,2 10 0 0,0
16.11.2017 00:00:00 9,8 8,9 11 6 S 1020,9 10 - -
15.11.2017 23:00:00 10,3 8,8 9 5 S 1021,5 10 0 0,0
15.11.2017 22:00:00 8,6 8,5 2 1 SW 1021,8 7 0 0,0
15.11.2017 21:00:00 8,7 8,4 5 3 ENE 1022,2 3,5 0 0,0
15.11.2017 20:00:00 8,6 8,2 4 2 SSW 1022,4 1,4 0 0,0
15.11.2017 19:00:00 9,2 8,9 2 1 NE 1022,2 3,5 0 0,0
15.11.2017 18:00:00 9,8 9,1 4 2 E 1022,2 5 0 0,0
15.11.2017 17:00:00 10,4 9,5 4 2 E 1022,6 6 0 0,0
15.11.2017 16:00:00 10,7 9,4 4 2 SE 1023,0 10 0 0,0
15.11.2017 15:00:00 10,8 9,0 4 2 ESE 1023,4 10 0 0,0
15.11.2017 14:00:00 10,8 8,8 5 3 ESE 1023,6 10 0 0,0
15.11.2017 13:00:00 10,6 8,7 5 3 ESE 1023,8 10 0 0,2

tt = temperature
td = dewpoint
ff = wind speed
dd = wind direction
ppp = reduced air pressure
vv = visibility
sd = sunshine duration
rr = precipitation

Next stations